AN8b_time,AN8b_WTE_10_Temp,AN8b_WTE_10_VWC,AN8b_WTE_10_Cond
2014-07-24,14.4499996900558,0.363030426204205,2.37874999642372
2014-07-25,14.483333269755,0.362554062157869,2.37958334883054
2014-07-26,14.5,0.360916112860044,2.03500000139078
2014-07-27,14.5125000476837,0.370407074689865,1.75458333392938
2014-07-28,14.5416668256124,0.369800139218569,1.54749999940395
2014-07-29,14.5,0.369136147201061,1.39125000437101
2014-07-30,14.5,0.368179061760505,1.27124998966853
2014-07-31,14.4041663010915,0.36719927812616,1.17708332836628
2014-08-01,14.3999996185303,0.367343824356794,1.09958335757256
2014-08-02,14.3999996185303,0.372721370309591,1.04249996940295
2014-08-03,14.3958329757055,0.374724039187034,0.99291667342186
2014-08-04,14.3083334763845,0.375737156718969,0.949583329260349
2014-08-05,14.2958335081736,0.375136186679204,0.912083340187868
2014-08-06,14.1999998092651,0.374861462662617,0.879166662693024
2014-08-07,14.1999998092651,0.376183391859134,0.850416672726472
2014-08-08,14.1999998092651,0.376073731730382,0.824166655540466
2014-08-09,14.1999998092651,0.375190876424313,0.797916680574417
2014-08-10,14.158333381017,0.374458561340968,0.776666648685932
2014-08-11,14.1000003814697,0.373652774840593,0.754166662693024
2014-08-12,14.0333334604899,0.373671205093463,0.735833346843719
2014-08-13,13.9041663010915,0.372898334016403,0.717083342373371
2014-08-14,13.841666618983,0.372649259865284,0.701249986886978
2014-08-15,13.8000001907349,0.372824660191933,0.684166669845581
2014-08-16,13.7791667779287,0.372778497636318,0.668750017881393
2014-08-17,13.6999998092651,0.371762188772361,0.654166663686434
2014-08-18,13.6541667381922,0.371780663728714,0.64083331823349
2014-08-19,13.5208334128062,0.371706621100505,0.627916663885117
2014-08-20,13.4416664441427,0.371576905250549,0.615416675806046
2014-08-21,13.3125001192093,0.371122214943171,0.603333353996277
2014-08-22,13.2166665792465,0.37040618310372,0.592083317538103
2014-08-23,13.1000003814697,0.37042469655474,0.582083314657211
2014-08-24,13.0708336035411,0.371474833538135,0.570833325386047
2014-08-25,12.9624998569489,0.37146566559871,0.561666667461395
2014-08-26,12.8999996185303,0.371317264934381,0.552083343267441
2014-08-27,12.8999996185303,0.371419314295053,0.543333351612091
2014-08-28,12.8999996185303,0.371029494951169,0.533749990165234
2014-08-29,12.8999996185303,0.370704046140114,0.524166643619537
2014-08-30,12.8999996185303,0.370750563840071,0.519999980926514
2014-08-31,12.8999996185303,0.37120592345794,0.510416656732559
2014-09-01,12.8999996185303,0.370843534668287,0.501666665077209
2014-09-02,12.9874999523163,0.371233770002921,0.496250003576279
2014-09-03,13,0.37114093080163,0.490000009536743
2014-09-04,13,0.371001660823822,0.481249991804361
2014-09-05,13.0916670163472,0.370834287256002,0.47583332657814
2014-09-06,13.1208335955938,0.370369017124176,0.469166666269302
2014-09-07,13.1999998092651,0.37050865093867,0.46000000834465
2014-09-08,13.1999998092651,0.37077859044075,0.459166673322519
2014-09-09,13.1208335955938,0.369475075354179,0.449999988079071
2014-09-10,13.1000003814697,0.368589243541161,0.449583321809769
2014-09-11,13.1000003814697,0.370108097791672,0.439999997615814
2014-09-12,13.1000003814697,0.370108097791672,0.438333332538605
2014-09-13,13.0916670163472,0.370108097791672,0.430000007152557
2014-09-14,13,0.369996145367622,0.427916669597228
2014-09-15,13,0.369641296565533,0.419999986886978
2014-09-16,13,0.369398300846418,0.414166659116745
2014-09-17,13.0625002384186,0.369379587471485,0.409999996423721
2014-09-18,13.1000003814697,0.369211167097092,0.404583334922791
2014-09-19,13.158333381017,0.369239237159491,0.400000005960464
2014-09-20,13.266666730245,0.369416994353135,0.399583338449399
2014-09-21,13.3000001907349,0.369725424796343,0.391249988228083
2014-09-22,13.2374999523163,0.369716085493565,0.389999985694885
2014-09-23,13.1000003814697,0.369444986184438,0.386249989271164
2014-09-24,13.016666730245,0.368639305233955,0.379999995231628
2014-09-25,12.9166663487752,0.368536233901978,0.379999995231628
2014-09-26,12.8999996185303,0.368723767499129,0.379999995231628
2014-09-27,12.883333047231,0.369136244058609,0.370000004768372
2014-09-28,12.7583333651225,0.368986397981644,0.370000004768372
2014-09-29,12.6999998092651,0.368873909115791,0.370000004768372
2014-09-30,12.6999998092651,0.368855160971483,0.361250013113022
2014-10-01,12.6999998092651,0.368939484159152,0.360000014305115
2014-10-02,12.6999998092651,0.369276663909356,0.360000014305115
2014-10-03,12.6416668097178,0.368733124186595,0.358333344260852
2014-10-04,12.5041666825612,0.367415896306435,0.350416661550601
2014-10-05,12.4958333174388,0.367388155311346,0.349999994039536
2014-10-06,12.3333333333333,0.366290763020515,0.344583332538605
2014-10-07,12.2208333015442,0.365703225135803,0.340000003576279
2014-10-08,12.0541668732961,0.365988053381443,0.339166671037674
2014-10-09,11.8958329757055,0.365313363571962,0.330833345651627
2014-10-10,11.7958335081736,0.366111149390539,0.330000013113022
2014-10-11,11.6999998092651,0.366887668768565,0.330000013113022
2014-10-12,11.6208334763845,0.36731269210577,0.330000013113022
2014-10-13,11.483333269755,0.36740705370903,0.328750010579824
2014-10-14,11.341666618983,0.36745419104894,0.324583335469166
2014-10-15,11.2708334128062,0.367378745228052,0.319999992847443
2014-10-16,11.1708333094915,0.367019955068827,0.31958332657814
2014-10-17,11.1000003814697,0.367218260963758,0.318749994039536
2014-10-18,11.1833332379659,0.367595542222261,0.314999997615814
2014-10-19,11.2750000953674,0.367981667319934,0.3125
2014-10-20,11.362499833107,0.368545394390821,0.310000002384186
2014-10-21,11.3999996185303,0.368507989992698,0.310000002384186
2014-10-22,11.3666664759318,0.369314055889845,0.310000002384186
2014-10-23,11.2250000238419,0.369323447346687,0.310000002384186
2014-10-24,11.1000003814697,0.368827038755019,0.310000002384186
2014-10-25,11.1000003814697,0.368592530488968,0.308750003576279
2014-10-26,11.1000003814697,0.368414144963026,0.300833344459534
2014-10-27,11.0500001907349,0.368310838937759,0.300000011920929
2014-10-28,11.1000003814697,0.36807573462526,0.300000011920929
2014-10-29,11.2374999920527,0.367208419988553,0.300000011920929
2014-10-30,11.2000000079473,0.368432817359765,0.299166676898797
2014-10-31,11.1000003814697,0.368930066625277,0.296666671832403
2014-11-01,11.1000003814697,0.369314060856899,0.295000001788139
2014-11-02,11.1000003814697,0.369874853640795,0.291666661699613
2014-11-03,11.1000003814697,0.369135855386655,0.28999999165535
2014-11-04,11.0625002384186,0.368103962391615,0.28999999165535
2014-11-05,10.8708331982295,0.367594312876463,0.28999999165535
2014-11-06,10.6333334048589,0.368225798010826,0.288749992847443
2014-11-07,10.3874999284744,0.368254218250513,0.284166663885117
2014-11-08,10.2041664918264,0.368263746301333,0.280833333730698
2014-11-09,10.158333381017,0.368442319333553,0.280000001192093
2014-11-10,10.0333334604899,0.368573764959971,0.280000001192093
2014-11-11,9.94166644414266,0.368414144963026,0.280000001192093
2014-11-12,9.80000019073486,0.368216815094153,0.280000001192093
2014-11-13,9.80000019073486,0.368244999398788,0.279583334922791
2014-11-14,9.80000019073486,0.368685486416022,0.275833338499069
2014-11-15,9.8666664759318,0.368938929090897,0.271250009536743
2014-11-16,9.89999961853027,0.370042501638333,0.271250009536743
2014-11-17,9.8166667620341,0.370367844899495,0.270000010728836
2014-11-18,9.80000019073486,0.370489882926146,0.270000010728836
2014-11-19,9.80000019073486,0.371595098326604,0.270000010728836
2014-11-20,9.80000019073486,0.372131459712982,0.270000010728836
2014-11-21,9.80000019073486,0.37286140397191,0.270000010728836
2014-11-22,9.77500009536743,0.372583951801062,0.270000010728836
2014-11-23,9.69999980926514,0.371984325349331,0.270000010728836
2014-11-24,9.64166680971781,0.371901076287031,0.270000010728836
2014-11-25,9.51250004768372,0.37189182639122,0.269166675706704
2014-11-26,9.35833319028219,0.37263998016715,0.261249992996454
2014-11-27,9.19583320617676,0.372630993525187,0.259999990463257
2014-11-28,9.09583369890849,0.372723263998826,0.259999990463257
2014-11-29,9.01250004768372,0.372575307885806,0.259999990463257
2014-11-30,9.10000038146973,0.37205832451582,0.259999990463257
2014-12-01,9.1833332379659,0.372169256210327,0.259999990463257
2014-12-02,9.19999980926514,0.372362823535999,0.259999990463257
2014-12-03,9.12500007947286,0.372206171353658,0.259999990463257
2014-12-04,8.92499991257985,0.372621346265078,0.258333325386047
2014-12-05,8.6791668732961,0.371984059611956,0.254583328962326
2014-12-06,8.49166663487752,0.371651036043962,0.253333330154419
2014-12-07,8.262499888738,0.371697093049685,0.25
2014-12-08,8.16666666666667,0.371502721061309,0.25
2014-12-09,7.98750009139379,0.37125227227807,0.25
2014-12-10,7.79166678587596,0.371057176341613,0.25
2014-12-11,7.67083317041397,0.370784348497788,0.25
2014-12-12,7.54166662693024,0.369977460553249,0.25
2014-12-13,7.35833346843719,0.370629645884037,0.25
2014-12-14,7.1958332657814,0.370108038187027,0.249583333109816
2014-12-15,7.09999990463257,0.370387339343627,0.243333329757055
2014-12-16,7.05416661500931,0.370126689473788,0.241249995306134
2014-12-17,6.96250003576279,0.370136059820652,0.239999994635582
2014-12-18,6.99583333730698,0.370322198917468,0.239999994635582
2014-12-19,7.17499991257985,0.370275676250458,0.239999994635582
2014-12-20,7.30000019073486,0.37055512641867,0.239999994635582
2014-12-21,7.30000019073486,0.37063895786802,0.239999994635582
2014-12-22,7.30000019073486,0.371381655335426,0.239999994635582
2014-12-23,7.45416671037674,0.372186159094175,0.239999994635582
2014-12-24,7.65416651964188,0.37220561504364,0.239999994635582
2014-12-25,7.73749995231628,0.372095294296741,0.239999994635582
2014-12-26,7.64166653156281,0.372252450635036,0.239999994635582
2014-12-27,7.48750001192093,0.372057559589545,0.239999994635582
2014-12-28,7.29583344856898,0.3712594670554,0.239999994635582
2014-12-29,7.10416656732559,0.371743651727835,0.239999994635582
2014-12-30,6.88333344459534,0.371511982132991,0.23958332836628
2014-12-31,6.71666653951009,0.37116876244545,0.237499997019768
2015-01-01,6.61666655540466,0.370852892597516,0.233750000596046
2015-01-02,6.69583316644033,0.371623124927282,0.230000004172325
2015-01-03,6.80000019073486,0.371372910837332,0.231250002980232
2015-01-04,6.80000019073486,0.3716139793396,0.230000004172325
2015-01-05,6.69583316644033,0.37140075986584,0.230000004172325
2015-01-06,6.55833327770233,0.371243047217528,0.230000004172325
2015-01-07,6.5,0.371159469087919,0.230000004172325
2015-01-08,6.54583328962326,0.371196616441011,0.230000004172325
2015-01-09,6.60416656732559,0.371224320183198,0.229583337282141
2015-01-10,6.69999980926514,0.371260546147823,0.230000004172325
2015-01-11,6.77500009536743,0.372353510310252,0.230000004172325
2015-01-12,6.72499990463257,0.372196678072214,0.230000004172325
2015-01-13,6.69999980926514,0.371845444043477,0.230000004172325
2015-01-14,6.62916654348373,0.371511964748303,0.230000004172325
2015-01-15,6.46666669845581,0.371845450252295,0.226250002160668
2015-01-16,6.33750015497208,0.371993560343981,0.227500002831221
2015-01-17,6.22916664679845,0.372113739450773,0.221666666368643
2015-01-18,6.07916659116745,0.37210426107049,0.222083333258828
2015-01-19,5.90000009536743,0.372113727033138,0.221249999478459
2015-01-20,5.74583333730698,0.37184551730752,0.219999998807907
2015-01-21,5.59999990463257,0.371799228092035,0.219999998807907
2015-01-22,5.54166662693024,0.371947325766087,0.219999998807907
2015-01-23,5.45416671037674,0.371901056418816,0.219999998807907
2015-01-24,5.40000009536743,0.372012075036764,0.219999998807907
2015-01-25,5.35000014305115,0.371965793271859,0.219999998807907
2015-01-26,5.37083345651627,0.372354033092658,0.219999998807907
2015-01-27,5.46250003576279,0.372224681079388,0.219999998807907
2015-01-28,5.54999995231628,0.372685427467028,0.219999998807907
2015-01-29,5.59999990463257,0.372122890005509,0.219999998807907
2015-01-30,5.57916659116745,0.371836227675279,0.219999998807907
2015-01-31,5.44166672229767,0.372381504625082,0.219166665027539
2015-02-01,5.27916663885117,0.37203973531723,0.219999998807907
2015-02-02,5.19166648387909,0.37189182639122,0.219999998807907
2015-02-03,5.04166662693024,0.371919576078653,0.218749998137355
2015-02-04,4.85833346843719,0.371938027441502,0.218333331247171
2015-02-05,4.73333326975505,0.371947300930818,0.212916661674778
2015-02-06,4.60416656732559,0.372353943685691,0.209999993443489
2015-02-07,4.59999990463257,0.371956575661898,0.211249994114041
2015-02-08,4.59999990463257,0.37189182639122,0.210416660333673
2015-02-09,4.59999990463257,0.371734409282605,0.210833327223857
2015-02-10,4.60833323001862,0.37165100996693,0.209999993443489
2015-02-11,4.69999980926514,0.371437827746073,0.209999993443489
2015-02-12,4.75833336512248,0.371688110133012,0.209999993443489
2015-02-13,4.80000019073486,0.371530562639236,0.209999993443489
2015-02-14,4.81250017881393,0.371817747751872,0.209999993443489
2015-02-15,4.95416671037674,0.37182700758179,0.209999993443489
2015-02-16,5.06249994039536,0.371799218157927,0.209999993443489
2015-02-17,5.19166648387909,0.372113823890686,0.209999993443489
2015-02-18,5.19999980926514,0.371882566561302,0.209999993443489
2015-02-19,5.21666653951009,0.371669590473175,0.209999993443489
2015-02-20,5.39583343267441,0.3716139793396,0.209999993443489
2015-02-21,5.40000009536743,0.371632507691781,0.209999993443489
2015-02-22,5.40000009536743,0.371826997647683,0.209999993443489
2015-02-23,5.24166659514109,0.371752865612507,0.209999993443489
2015-02-24,5.19999980926514,0.372445605695248,0.209999993443489
2015-02-25,5.19999980926514,0.373303441951672,0.209999993443489
2015-02-26,5.11666655540466,0.372953560203314,0.209999993443489
2015-02-27,5.19999980926514,0.372815228998661,0.209999993443489
2015-02-28,5.19999980926514,0.37205832451582,0.209999993443489
2015-03-01,5.19999980926514,0.37189182639122,0.209999993443489
2015-03-02,5.26666673024495,0.372048985213041,0.209999993443489
2015-03-03,5.22916658719381,0.372141516457001,0.209583327174187
2015-03-04,5.19999980926514,0.372824627906084,0.209166660904884
2015-03-05,5.12916654348373,0.372511015584071,0.209999993443489
2015-03-06,5.11666655540466,0.372317127883434,0.208749994635582
2015-03-07,5.19999980926514,0.372123066335917,0.20833332836628
2015-03-08,5.33750003576279,0.372280093530814,0.208749994635582
2015-03-09,5.54583328962326,0.372400163362424,0.20833332836628
2015-03-10,5.59999990463257,0.372769270092249,0.209999993443489
2015-03-11,5.59999990463257,0.37246485799551,0.20833332836628
2015-03-12,5.5874999165535,0.372640119244655,0.203749999403954
2015-03-13,5.5,0.372804878900448,0.200833335518837
2015-03-14,5.5,0.373625323176384,0.202500000596046
2015-03-15,5.5,0.373662084341049,0.204166665673256
2015-03-16,5.5,0.374861512333155,0.200416669249535
2015-03-17,5.53749996423721,0.374880452950795,0.200000002980232
2015-03-18,5.59999990463257,0.374679334461689,0.200416669249535
2015-03-19,5.59999990463257,0.37460596114397,0.202916666865349
2015-03-20,5.67499983310699,0.373799789696932,0.200416669249535
2015-03-21,5.77083341280619,0.373808970053991,0.200833335518837
2015-03-22,5.80000019073486,0.373680445055167,0.200000002980232
2015-03-23,5.80000019073486,0.373606942594051,0.200000002980232
2015-03-24,5.80000019073486,0.37380871673425,0.200000002980232
2015-03-25,5.78750014305115,0.37380891914169,0.200000002980232
2015-03-26,5.68749982118607,0.373625273505847,0.200000002980232
2015-03-27,5.59999990463257,0.373588562011719,0.200000002980232
2015-03-28,5.59999990463257,0.373551726341248,0.200000002980232
2015-03-29,5.64999985694885,0.373707977433999,0.200000002980232
2015-03-30,5.79166682561239,0.373726279785236,0.200000002980232
2015-03-31,5.80000019073486,0.374074137459199,0.200000002980232
2015-04-01,5.80000019073486,0.373137765874465,0.200000002980232
2015-04-02,5.77916677792867,0.373597702632348,0.200000002980232
2015-04-03,5.69999980926514,0.374028945962588,0.200000002980232
2015-04-04,5.71249985694885,0.374010792622964,0.200000002980232
2015-04-05,5.83333349227905,0.373900756239891,0.200000002980232
2015-04-06,6.02083331346512,0.374221667647362,0.200000002980232
2015-04-07,6.21249997615814,0.374239886800448,0.200000002980232
2015-04-08,6.37916678190231,0.374166657527288,0.200000002980232
2015-04-09,6.5,0.37405663728714,0.200000002980232
2015-04-10,6.54583328962326,0.373854828377565,0.200000002980232
2015-04-11,6.67499983310699,0.373662084341049,0.200000002980232
2015-04-12,6.77916677792867,0.37388139218092,0.199583336090048
2015-04-13,6.80000019073486,0.372962531944116,0.200000002980232
2015-04-14,6.80000019073486,0.373662064472834,0.200000002980232
2015-04-15,6.8416668176651,0.373763001213471,0.200000002980232
2015-04-16,6.90416675806046,0.373689595609903,0.200000002980232
2015-04-17,6.99565217805945,0.373757852160412,0.200000002980232
2015-04-18,7.02499997615814,0.37382731338342,0.200000002980232
2015-04-19,7.09999990463257,0.373763068268696,0.200000002980232
2015-04-20,7.09999990463257,0.37397412955761,0.199583336090048
2015-04-21,7.10833323001862,0.374038301408291,0.198333335419496
2015-04-22,7.19999980926514,0.373937408129374,0.199166669199864
2015-04-23,7.26250004768372,0.373707986126343,0.199166669199864
2015-04-24,7.30833351612091,0.373616132885218,0.197916668529312
2015-04-25,7.45833337306976,0.373680386692286,0.194583333407839
2015-04-26,7.57499992847443,0.373744707554579,0.196250000968575
2015-04-27,7.59999990463257,0.373781353235245,0.193749999627471
2015-04-28,7.54583328962326,0.374340511858463,0.190833331396182
2015-04-29,7.43333339691162,0.374249011278152,0.190416664505998
2015-04-30,7.30000019073486,0.374303840100765,0.189999997615814
2015-05-01,7.30000019073486,0.373698805769285,0.189999997615814
2015-05-02,7.30000019073486,0.373671216269334,0.189999997615814
2015-05-03,7.30000019073486,0.37414812669158,0.189999997615814
2015-05-04,7.30000019073486,0.373395528644323,0.189999997615814
2015-05-05,7.37916678190231,0.374303285032511,0.189999997615814
2015-05-06,7.54999995231628,0.374386377632618,0.189999997615814
2015-05-07,7.66249984502792,0.37402884165446,0.189999997615814
2015-05-08,7.75416668256124,0.374495786925157,0.189999997615814
2015-05-09,7.80000019073486,0.374732327957948,0.189999997615814
2015-05-10,7.82083350419998,0.374477801223596,0.189999997615814
2015-05-11,7.94583338499069,0.375172611325979,0.189999997615814
2015-05-12,8.10416674613953,0.375263938059409,0.189999997615814
2015-05-13,8.20416649182638,0.375391628593206,0.190416664505998
2015-05-14,8.32916669050852,0.375473655760288,0.189999997615814
2015-05-15,8.39999961853027,0.375491877396901,0.189999997615814
2015-05-16,8.40833298365275,0.375528313219547,0.189999997615814
2015-05-17,8.5,0.375592066595952,0.189999997615814
2015-05-18,8.60000038146973,0.375810487816731,0.189999997615814
2015-05-19,8.60000038146973,0.375810400893291,0.189999997615814
2015-05-20,8.60000038146973,0.375874251127243,0.189999997615814
2015-05-21,8.6333335240682,0.375728564957778,0.189999997615814
2015-05-22,8.76666673024496,0.375546542306741,0.189999997615814
2015-05-23,8.887499888738,0.375755929698547,0.189999997615814
2015-05-24,9.06250007947286,0.375992422302564,0.189999997615814
2015-05-25,9.24583331743876,0.376074360062679,0.189999997615814
2015-05-26,9.37083311875661,0.376201581209898,0.189999997615814
2015-05-27,9.42499971389771,0.376573724051317,0.189999997615814
2015-05-28,9.53333346048991,0.376610015829404,0.189999997615814
2015-05-29,9.60000038146973,0.376519321153561,0.189999997615814
2015-05-30,9.60000038146973,0.37643767769138,0.189999997615814
2015-05-31,9.59583369890849,0.376491958896319,0.189999997615814
2015-06-01,9.59583369890849,0.376473899930716,0.189999997615814
2015-06-02,9.5,0.375928702453772,0.189999997615814
2015-06-03,9.5,0.375491837660472,0.189999997615814
2015-06-04,9.5,0.375455332299074,0.189999997615814
2015-06-05,9.57916696866353,0.375245696554581,0.189999997615814
2015-06-06,9.74166667461395,0.375573835025231,0.189999997615814
2015-06-07,9.85833319028219,0.376074368755023,0.189999997615814
2015-06-08,9.95416649182638,0.376464813947678,0.189999997615814
2015-06-09,10,0.376619127889474,0.189999997615814
2015-06-10,10.0416668256124,0.376383187870185,0.189999997615814
2015-06-11,10.1541667381922,0.376037972668807,0.189999997615814
2015-06-12,10.2249999046326,0.375837881118059,0.189999997615814
2015-06-13,10.3458332618078,0.375774088005225,0.189999997615814
2015-06-14,10.4958333174388,0.376464874794086,0.188749998807907
2015-06-15,10.6000003814697,0.376446781059106,0.189999997615814
2015-06-16,10.5333334604899,0.376428626477718,0.189166665077209
2015-06-17,10.6333335240682,0.37615613391002,0.189999997615814
2015-06-18,10.7583333651225,0.376065308849017,0.189166665077209
2015-06-19,10.8874996900558,0.376074403524399,0.188749998807907
2015-06-20,10.8999996185303,0.376037990053495,0.187916666269302
2015-06-21,10.8999996185303,0.375172652304173,0.186666667461395
2015-06-22,10.9791665871938,0.374999230106672,0.183333337306976
2015-06-23,11.0041666825612,0.375117927789688,0.182083338499069
2015-06-24,11.0625002384186,0.374926157295704,0.182083338499069
2015-06-25,11.1000003814697,0.374907890955607,0.18041667342186
2015-06-26,11.1583334207535,0.374688319861889,0.180000007152557
2015-06-27,11.3250000476837,0.374075017869473,0.18041667342186
2015-06-28,11.4624998569489,0.374111558000247,0.180000007152557
2015-06-29,11.5625001986821,0.37397412955761,0.18041667342186
2015-06-30,11.7083331743876,0.373671034971873,0.180000007152557
2015-07-01,11.8541665474574,0.370747786015272,0.180833339691162
2015-07-02,12.0458334684372,0.369407555709283,0.182500004768372
2015-07-03,12.266666730245,0.369725201278925,0.18041667342186
2015-07-04,12.3666664759318,0.368761168171962,0.180000007152557
2015-07-05,12.4916666348775,0.368113373716672,0.180000007152557
2015-07-06,12.5333334604899,0.369463303436836,0.18041667342186
2015-07-07,12.6000003814697,0.36940743525823,0.180000007152557
2015-07-08,12.6208335955938,0.369351389507453,0.180000007152557
2015-07-09,12.6958331664403,0.369744073599577,0.180000007152557
2015-07-10,12.6000003814697,0.368986111134291,0.180000007152557
2015-07-11,12.6291668812434,0.368489214529594,0.180000007152557
2015-07-12,12.6999998092651,0.368113366266092,0.180000007152557
2015-07-13,12.7750000953674,0.36807573462526,0.180000007152557
2015-07-14,12.8958329757055,0.368169818073511,0.180000007152557
2015-07-15,12.8999996185303,0.367981694638729,0.180000007152557
2015-07-16,12.983333269755,0.367793432126443,0.180000007152557
2015-07-17,13,0.36754846572876,0.180000007152557
2015-07-18,13,0.36731269210577,0.180000007152557
2015-07-19,12.9749999046326,0.367208876957496,0.180000007152557
2015-07-20,12.8999996185303,0.367029468218486,0.180000007152557
2015-07-21,12.8999996185303,0.366736388454835,0.180000007152557
2015-07-22,12.8999996185303,0.366707989325126,0.180000007152557
2015-07-23,12.8999996185303,0.36643356581529,0.180000007152557
2015-07-24,12.8999996185303,0.366206172853708,0.180000007152557
2015-07-25,12.8374999761581,0.366101883351803,0.180000007152557
2015-07-26,12.7791667779287,0.364416011919578,0.180000007152557
2015-07-27,12.6999998092651,0.363738427559535,0.180000007152557
2015-07-28,12.6999998092651,0.363422120610873,0.180000007152557
2015-07-29,12.6041670242945,0.363019050409396,0.180000007152557
2015-07-30,12.5125000476837,0.363210942596197,0.180000007152557
2015-07-31,12.5,0.364379038413366,0.180000007152557
2015-08-01,12.4958333174388,0.365503588070472,0.180000007152557
2015-08-02,12.3999996185303,0.366215561827024,0.180000007152557